GW6173 Weather Reports


time (UTC)temp
C
wind
direction
speed
KPH
gust
KPH
rain 1hr
cm
rain 24hr
cm
rain mn
cm
humidity
%
barometer
mb
20260507090023 10 310 0.0 0.0 0.00 0.03 0.00 82 1021.9
20260507084522 10 310 0.0 3.2 0.00 0.03 0.00 82 1021.9
20260507081534 10 310 0.0 6.4 0.00 0.03 0.00 82 1021.8
20260507080019 10 310 1.6 8.0 0.00 0.03 0.00 82 1021.7
20260507074536 10 312 1.6 6.4 0.00 0.03 0.00 82 1021.7
20260507073019 10 312 0.0 6.4 0.00 0.03 0.00 82 1021.7
20260507071518 10 313 0.0 8.0 0.00 0.03 0.00 81 1021.6
20260507070021 10 304 3.2 8.0 0.00 0.03 0.00 81 1021.7
20260507064519 10 304 3.2 12.9 0.00 0.03 0.03 80 1021.7
20260507061517 11 321 3.2 12.9 0.00 0.03 0.03 80 1021.7
20260507060020 11 307 1.6 11.3 0.00 0.03 0.03 81 1021.7
20260507054505 11 287 1.6 19.3 0.00 0.03 0.03 81 1021.7
20260507053006 11 303 0.0 11.3 0.00 0.03 0.03 82 1021.8
20260507051504 11 308 1.6 11.3 0.00 0.03 0.03 81 1021.8
20260507044506 12 291 0.0 11.3 0.00 0.03 0.03 80 1021.9
20260507043004 12 294 3.2 11.3 0.00 0.03 0.03 80 1021.9
20260507041504 12 304 1.6 11.3 0.00 0.03 0.03 80 1021.8
20260507040006 12 297 4.8 17.7 0.00 0.03 0.03 80 1021.6
20260507034503 12 295 4.8 14.5 0.00 0.03 0.03 81 1021.5
20260507033008 12 297 8.0 16.1 0.00 0.03 0.03 80 1021.4
20260507031506 12 290 8.0 16.1 0.00 0.03 0.03 80 1021.3
20260507030005 12 311 4.8 19.3 0.00 0.03 0.03 80 1021.1
20260507024504 13 296 9.7 17.7 0.00 0.03 0.03 80 1021.1
20260507023004 13 311 9.7 20.9 0.00 0.03 0.03 79 1021.1
20260507021504 13 302 12.9 22.5 0.00 0.03 0.03 79 1021.0
20260507020005 14 294 12.9 20.9 0.00 0.03 0.03 78 1021.0
20260507014536 14 287 4.8 20.9 0.00 0.03 0.03 78 1020.9
20260507013005 14 288 11.3 19.3 0.00 0.03 0.03 77 1020.7
20260507011505 14 264 6.4 16.1 0.00 0.03 0.03 76 1020.8
20260507010006 14 266 9.7 19.3 0.00 0.03 0.03 77 1021.0
20260507004539 14 262 8.0 17.7 0.00 0.03 0.03 77 1021.0
20260507003008 15 268 9.7 17.7 0.00 0.03 0.03 77 1021.1
20260507001508 15 248 12.9 20.9 0.00 0.03 0.03 76 1021.0
20260507000008 15 242 12.9 20.9 0.00 0.03 0.03 77 1021.0
20260506234507 15 258 12.9 20.9 0.00 0.03 0.03 75 1021.0
20260506233008 15 226 11.3 22.5 0.00 0.03 0.03 75 1020.9
20260506231510 15 234 9.7 20.9 0.00 0.03 0.03 75 1021.0
20260506230009 15 269 16.1 20.9 0.00 0.03 0.03 74 1021.0
20260506224512 15 242 11.3 17.7 0.00 0.03 0.03 75 1021.0
20260506223009 15 206 9.7 17.7 0.00 0.03 0.03 73 1021.1
20260506221510 15 248 12.9 17.7 0.00 0.03 0.03 75 1021.3
20260506214513 15 212 6.4 12.9 0.00 0.03 0.03 72 1021.1
20260506213011 15 169 6.4 19.3 0.00 0.03 0.03 75 1021.2
20260506211511 15 209 4.8 16.1 0.00 0.03 0.03 76 1021.3
20260506204518 15 165 6.4 25.7 0.00 0.03 0.03 79 1021.2
20260506203004 15 189 11.3 20.9 0.00 0.03 0.03 80 1021.3
20260506200012 14 192 8.0 17.7 0.00 0.03 0.03 79 1021.1
20260506191516 13 236 1.6 14.5 0.00 0.03 0.03 79 1021.2
20260506190014 13 195 8.0 14.5 0.00 0.03 0.03 80 1021.1
20260506184515 13 172 6.4 22.5 0.00 0.03 0.03 82 1021.0
20260506180015 12 228 6.4 11.3 0.00 0.03 0.03 89 1021.1
20260506174514 12 246 3.2 8.0 0.00 0.03 0.03 89 1021.2
20260506173016 12 213 6.4 16.1 0.00 0.03 0.03 88 1021.1
20260506170021 12 190 11.3 17.7 0.00 0.03 0.03 89 1020.9
20260506164518 12 174 9.7 16.1 0.00 0.03 0.03 90 1020.7
20260506163030 12 179 6.4 16.1 0.00 0.03 0.03 92 1020.7
20260506160020 11 167 11.3 17.7 0.00 0.03 0.03 94 1020.5
20260506154518 11 155 4.8 14.5 0.00 0.03 0.03 95 1020.3
20260506153016 11 105 0.0 3.2 0.00 0.03 0.03 96 1020.4
20260506151516 11 105 0.0 0.0 0.00 0.03 0.03 96 1020.4
20260506150016 11 105 0.0 1.6 0.00 0.03 0.03 96 1020.5
20260506144517 11 105 4.8 11.3 0.00 0.03 0.03 96 1019.7
20260506143018 10 321 3.2 6.4 0.03 0.03 0.03 96 1019.9
20260506141518 10 321 0.0 0.0 0.03 0.03 0.03 95 1020.2
20260506140017 10 321 0.0 4.8 0.03 0.03 0.03 95 1020.4
20260506134515 10 321 0.0 4.8 0.03 0.03 0.03 95 1020.1
20260506133012 10 321 3.2 8.0 0.00 0.00 0.00 95 1020.1
20260506131515 10 321 1.6 4.8 0.00 0.00 0.00 95 1019.6
20260506130015 11 321 0.0 3.2 0.00 0.00 0.00 95 1019.6
20260506124517 11 321 0.0 0.0 0.00 0.00 0.00 94 1019.4
20260506123017 11 321 0.0 0.0 0.00 0.00 0.00 94 1019.3
20260506121515 11 321 0.0 0.0 0.00 0.00 0.00 94 1019.2
20260506120018 11 321 0.0 0.0 0.00 0.00 0.00 93 1019.3
20260506111517 11 321 0.0 6.4 0.00 0.00 0.00 91 1019.1
20260506110016 11 321 0.0 6.4 0.00 0.00 0.00 90 1019.1
20260506104515 11 321 3.2 6.4 0.00 0.00 0.00 89 1018.9
20260506103020 11 321 4.8 6.4 0.00 0.00 0.00 88 1018.7
20260506101519 12 321 0.0 3.2 0.00 0.00 0.00 88 1018.6
20260506100018 12 321 0.0 4.8 0.00 0.00 0.00 88 1018.4
20260506091516 12 321 0.0 4.8 0.00 0.00 0.00 88 1018.3